This is the latest recevied weather packets stored in our database for station/object KF0ZH. If no packets are shown the sender has not sent any weather packets the latest 10 day(s).
| Time | Temp. | Humidity | Pressure | Rain* | Wind** | Luminosity | Snow |
|---|---|---|---|---|---|---|---|
| 1777569720 | 7.22° C | 64% | 1017.2 hPa | 0 mm | 1.34 m/s, 8° | - | - |
| 1777569420 | 7.22° C | 65% | 1017.1 hPa | 0 mm | 0 m/s | - | - |
| 1777569120 | 7.22° C | 64% | 1017.2 hPa | 0 mm | 2.24 m/s, 63° | - | - |
| 1777568820 | 6.67° C | 66% | 1017.3 hPa | 0 mm | 2.24 m/s, 317° | - | - |
| 1777568520 | 7.22° C | 66% | 1017.5 hPa | 0 mm | 0.89 m/s, 281° | - | - |
| 1777568219 | 7.22° C | 66% | 1017.4 hPa | 0 mm | 0 m/s | - | - |
| 1777567922 | 6.67° C | 67% | 1017.4 hPa | 0 mm | 2.68 m/s, 322° | - | - |
| 1777567620 | 6.67° C | 67% | 1017.5 hPa | 0 mm | 2.68 m/s, 355° | - | - |
| 1777567021 | 6.67° C | 67% | 1017.4 hPa | 0 mm | 0 m/s | - | - |
| 1777566720 | 6.67° C | 68% | 1017.5 hPa | 0 mm | 2.68 m/s, 330° | - | - |
| 1777566420 | 6.67° C | 67% | 1017.5 hPa | 0 mm | 0 m/s | - | - |
| 1777566120 | 6.67° C | 68% | 1017.5 hPa | 0 mm | 0 m/s | - | - |
| 1777565520 | 6.67° C | 69% | 1017.4 hPa | 0 mm | 0 m/s | - | - |
| 1777565220 | 6.67° C | 69% | 1017.4 hPa | 0 mm | 2.24 m/s, 336° | - | - |
| 1777564919 | 6.67° C | 67% | 1017.5 hPa | 0 mm | 3.13 m/s, 5° | - | - |
| 1777564619 | 6.67° C | 65% | 1017.5 hPa | 0 mm | 4.02 m/s, 331° | - | - |
| 1777564322 | 6.67° C | 68% | 1017.5 hPa | 0 mm | 1.79 m/s, 341° | - | - |
| 1777564021 | 6.11° C | 68% | 1017.6 hPa | 0 mm | 0 m/s | - | - |
| 1777563719 | 6.11° C | 69% | 1017.5 hPa | 0 mm | 0 m/s | - | - |
| 1777563421 | 6.11° C | 68% | 1017.6 hPa | 0 mm | 3.13 m/s, 322° | - | - |
| 1777563121 | 6.11° C | 68% | 1017.6 hPa | 0 mm | 2.68 m/s, 347° | - | - |
| 1777562819 | 6.11° C | 67% | 1017.6 hPa | 0 mm | 1.34 m/s, 275° | - | - |
| 1777562220 | 5.56° C | 69% | 1017.5 hPa | 0 mm | 4.47 m/s, 331° | - | - |
| 1777561920 | 5.56° C | 69% | 1017.5 hPa | 0 mm | 0.89 m/s, 358° | - | - |
| 1777561619 | 5.56° C | 70% | 1017.5 hPa | 0 mm | 3.13 m/s, 310° | - | - |
* Rain latest hour (hover to see other rain measurements)
** Current wind speed in m/s (hover to see current wind gust speed)